Victoria, TX

3:13 PM CST on December 09, 2019 (GMT -0600)
Victoria Regional

Weather History for KVCT - October, 2019

Change the Weather History Date:

Thursday, October 24, 2019

  Actual Average Record
Temperature  
Mean Temperature 72 °F 70 °F  
Max Temperature 89 °F 82 °F 94 °F (1926)
Min Temperature 55 °F 59 °F 39 °F (2008)
Degree Days  
Heating Degree Days 0 1  
Month to date heating degree days 0 9  
Since 1 July heating degree days 0 10  
Cooling Degree Days 7 6  
Month to date cooling degree days 284 205  
Year to date cooling degree days 3549 3003  
Growing Degree Days 22 (Base 50)    
Moisture  
Dew Point 67 °F    
Average Humidity 80    
Maximum Humidity 94    
Minimum Humidity 55    
Precipitation  
Precipitation 0.29 in 0.15 in 3.87 in (2015)
Month to date precipitation 2.02 3.70  
Year to date precipitation 21.38 34.73  
Snow  
Snow 0.00 in 0.00 in 0.00 in (2002)
Month to date snowfall 0.0 0.0  
Since 1 July snowfall 0.0 0.0  
Since 1 September snowfall 0.0 0.0  
Snow Depth 0.00 in    
Sea Level Pressure  
Sea Level Pressure 29.93 in    
Wind  
Wind Speed 9 mph ()    
Max Wind Speed 28 mph    
Max Gust Speed 36 mph    
Visibility 8.5 miles    
Events Rain    
T = Trace of Precipitation, MM = Missing Value Source: Averaged Metar Reports

Daily Weather History Graph

Daily Weather History Graph

Search for Another Location

Airport or City:

Astronomy

Oct. 24, 2019 Rise Set
Actual Time 7:34 AM CDT 6:49 PM CDT
Civil Twilight 7:10 AM CDT 7:13 PM CDT
Nautical Twilight 6:42 AM CDT 7:40 PM CDT
Astronomical Twilight 6:14 AM CDT 8:08 PM CDT
Moon 3:34 AM CDT (10/24) 4:52 PM CDT (10/24)
Length of Visible Light 12h 02m
Length of Day
11h 14m
Waning Crescent, 16% of the Moon is Illuminated
Oct 24
Waning Crescent
Oct 27
New
Nov 4
First Quarter
Nov 12
Full
Nov 19
Last Quarter

Hourly Weather History & Observations

Time (CDT) Temp. Heat Index Dew Point Humidity Pressure Visibility Wind Dir Wind Speed Gust Speed Precip Events Conditions
12:51 AM 64.0 °F - 61.0 °F 90% 29.97 in 7.0 mi East 4.6 mph - N/A   Partly Cloudy
1:51 AM 64.0 °F - 61.0 °F 90% 29.96 in 8.0 mi ENE 5.8 mph - N/A   Overcast
2:51 AM 63.0 °F - 61.0 °F 93% 29.95 in 7.0 mi ENE 5.8 mph - N/A   Overcast
3:51 AM 63.0 °F - 61.0 °F 93% 29.94 in 7.0 mi ENE 5.8 mph - N/A   Overcast
4:51 AM 64.0 °F - 62.1 °F 93% 29.94 in 7.0 mi ENE 4.6 mph - N/A   Overcast
5:51 AM 66.0 °F - 64.0 °F 93% 29.94 in 7.0 mi ENE 6.9 mph - N/A   Overcast
6:51 AM 66.0 °F - 64.0 °F 93% 29.95 in 7.0 mi East 6.9 mph - N/A   Overcast
7:51 AM 66.9 °F - 64.0 °F 90% 29.95 in 7.0 mi ENE 6.9 mph - N/A   Overcast
8:51 AM 71.1 °F - 68.0 °F 90% 29.96 in 8.0 mi East 8.1 mph - N/A   Partly Cloudy
9:51 AM 78.1 °F - 68.0 °F 71% 29.98 in 10.0 mi East 11.5 mph - N/A   Clear
10:51 AM 82.0 °F 84.9 °F 68.0 °F 62% 29.98 in 10.0 mi ESE 15.0 mph 21.9 mph N/A   Scattered Clouds
11:13 AM 82.9 °F 86.5 °F 69.1 °F 63% 29.98 in 10.0 mi SE 16.1 mph - N/A   Mostly Cloudy
11:47 AM 82.4 °F 86.3 °F 69.8 °F 66% 29.98 in 10.0 mi SE 17.3 mph 25.3 mph N/A   Overcast
11:51 AM 84.0 °F 87.8 °F 69.1 °F 61% 29.97 in 10.0 mi ESE 18.4 mph - N/A   Overcast
12:51 PM 84.9 °F 89.4 °F 70.0 °F 61% 29.95 in 10.0 mi SE 18.4 mph 25.3 mph N/A   Mostly Cloudy
1:51 PM 88.0 °F 93.8 °F 71.1 °F 57% 29.91 in 10.0 mi ESE 15.0 mph 27.6 mph N/A   Mostly Cloudy
2:51 PM 88.0 °F 92.9 °F 70.0 °F 55% 29.88 in 10.0 mi SE 19.6 mph - N/A   Scattered Clouds
3:51 PM 84.0 °F 88.4 °F 70.0 °F 63% 29.87 in 10.0 mi ESE 17.3 mph - N/A   Mostly Cloudy
4:51 PM 82.9 °F 87.0 °F 70.0 °F 65% 29.87 in 10.0 mi ESE 16.1 mph - N/A   Scattered Clouds
5:51 PM 81.0 °F 84.4 °F 70.0 °F 69% 29.88 in 10.0 mi ESE 15.0 mph 25.3 mph N/A   Mostly Cloudy
6:30 PM 78.1 °F - 69.1 °F 74% 29.89 in 10.0 mi SE 15.0 mph 26.5 mph N/A   Overcast
6:51 PM 75.9 °F - 70.0 °F 82% 29.89 in 10.0 mi ESE 17.3 mph - N/A   Mostly Cloudy
7:51 PM 73.0 °F - 69.1 °F 87% 29.88 in 10.0 mi SE 9.2 mph - N/A   Clear
8:51 PM 73.0 °F - 70.0 °F 90% 29.85 in 10.0 mi ESE 9.2 mph - N/A   Clear
9:51 PM 72.0 °F - 70.0 °F 93% 29.87 in 8.0 mi NNE 4.6 mph - N/A   Clear
10:23 PM 72.0 °F - 70.0 °F 93% 29.91 in 8.0 mi North 5.8 mph - N/A   Mostly Cloudy
10:47 PM 73.4 °F - 71.6 °F 94% 29.93 in 9.0 mi NNW 5.8 mph - N/A   Overcast
10:51 PM 73.0 °F - 71.1 °F 93% 29.93 in 7.0 mi NW 4.6 mph - 0.00 in Rain Light Rain
11:51 PM 60.1 °F - 57.0 °F 90% 29.98 in 5.0 mi NNW 21.9 mph 28.8 mph 0.05 in Rain Heavy Rain
11:57 PM 59.0 °F - 57.0 °F 93% 29.99 in 2.5 mi NNW 15.0 mph 26.5 mph 0.04 in Rain Heavy Rain